Location: Newark
(13.6797°N, 8.5297°E)
Time: 02:35:30
(UTC+00:00)

Courier 1B Rocket - Pass Details

Date: 18 January 2020
Orbit: 920 x 1202 km, 28.2° (Epoch: 19 February)

Event Time Altitude Azimuth Distance (km) Brightness Sun altitude
Rises 16:04:08 0° 300° (WNW) 3,586 8.5 15.8°
Reaches altitude 10° 16:07:29 10° 316° (NW) 2,617 7.6 15.1°
Maximum altitude 16:12:03 21° 3° (N) 1,947 6.4 14.1°
Drops below altitude 10° 16:16:36 10° 51° (NE) 2,607 6.7 13.1°
Sets 16:19:55 0° 67° (ENE) 3,567 7.3 12.4°
